Simultaneous Nadir Overpasses (SNOs) Predictions

Prediction of SNOs between GOES-16 and NPP Satellite Orbit:

Table of predicted SNOs for the next 14.0 days since TLE Epoch: 2/3/2024
Index Date Time (GOES-16) GOES-16 Lat,Lon NPP Lat,Lon Distance(km) Time Diff (sec)
1 02/03/2024 18:27:19 0.07, -75.21 -0.06, -75.80 66.65 80
2 02/04/2024 18:11:14 0.06, -75.22 0.97, -71.27 450.25 80
3 02/06/2024 06:33:02 -0.06, -75.21 0.23, -76.54 150.75 80
4 02/07/2024 06:11:36 -0.05, -75.21 -0.75, -72.00 366.07 80
5 02/08/2024 18:33:32 0.05, -75.23 -0.41, -77.30 236.60 80
6 02/09/2024 18:17:28 0.05, -75.23 0.62, -72.78 280.72 80
7 02/11/2024 06:39:15 -0.05, -75.24 0.57, -78.04 318.91 80
8 02/12/2024 06:17:50 -0.05, -75.25 -0.41, -73.50 198.73 80
9 02/13/2024 18:39:46 0.04, -75.28 -0.73, -78.81 402.69 80
10 02/14/2024 18:23:41 0.04, -75.29 0.25, -74.27 115.52 80
11 02/16/2024 06:45:28 -0.04, -75.31 0.94, -79.54 482.67 80
